| time (UTC) | temp C | wind direction | speed KPH | gust KPH | rain 1hr cm | rain 24hr cm | rain mn cm | humidity % | barometer mb |
| 20260503224958 | -17 | 193 | 14.5 | 16.1 | 0.00 | 0.00 | 0.00 | 1013.2 | |
| 20260503224455 | -17 | 242 | 12.9 | 14.5 | 0.00 | 0.00 | 0.00 | 1013.2 | |
| 20260503223953 | -17 | 250 | 16.1 | 17.7 | 0.00 | 0.00 | 0.00 | 1013.2 | |
| 20260503223451 | -17 | 252 | 9.7 | 9.7 | 0.00 | 0.00 | 0.00 | 1013.2 | |
| 20260503222946 | -17 | 186 | 11.3 | 16.1 | 0.00 | 0.00 | 0.00 | 1013.7 | |
| 20260503222445 | -17 | 192 | 11.3 | 16.1 | 0.00 | 0.00 | 0.00 | 1013.7 | |
| 20260503221942 | -17 | 180 | 17.7 | 19.3 | 0.00 | 0.00 | 0.00 | 1013.7 | |
| 20260503221440 | -17 | 210 | 17.7 | 19.3 | 0.00 | 0.00 | 0.00 | 1013.2 | |
| 20260503220937 | -17 | 172 | 9.7 | 9.7 | 0.00 | 0.00 | 0.00 | 1013.2 | |
| 20260503220433 | -17 | 190 | 9.7 | 9.7 | 0.00 | 0.00 | 0.00 | 1013.2 | |
| 20260503215930 | -17 | 147 | 9.7 | 9.7 | 0.00 | 0.00 | 0.00 | 1013.2 | |
| 20260503215427 | -17 | 192 | 11.3 | 11.3 | 0.00 | 0.00 | 0.00 | 1013.2 | |
| 20260503214925 | -17 | 259 | 16.1 | 16.1 | 0.00 | 0.00 | 0.00 | 1013.2 | |
| 20260503214422 | -17 | 246 | 16.1 | 17.7 | 0.00 | 0.00 | 0.00 | 1013.7 | |
| 20260503213920 | -17 | 168 | 8.0 | 8.0 | 0.00 | 0.00 | 0.00 | 1013.7 | |
| 20260503213418 | -17 | 168 | 4.8 | 6.4 | 0.00 | 0.00 | 0.00 | 1013.7 | |
| 20260503212914 | -17 | 265 | 20.9 | 24.1 | 0.00 | 0.00 | 0.00 | 1013.7 | |
| 20260503212412 | -17 | 210 | 9.7 | 11.3 | 0.00 | 0.00 | 0.00 | 1013.7 | |
| 20260503211909 | -17 | 216 | 16.1 | 16.1 | 0.00 | 0.00 | 0.00 | 1013.7 | |
| 20260503211405 | -17 | 198 | 14.5 | 19.3 | 0.00 | 0.00 | 0.00 | 1013.7 | |
| 20260503210900 | -17 | 62 | 8.0 | 9.7 | 0.00 | 0.00 | 0.00 | 1013.7 | |
| 20260503210358 | -17 | 238 | 12.9 | 14.5 | 0.00 | 0.00 | 0.00 | 1013.7 | |
| 20260503205853 | -17 | 319 | 11.3 | 12.9 | 0.00 | 0.00 | 0.00 | 1014.0 | |
| 20260503205350 | -17 | 276 | 6.4 | 6.4 | 0.00 | 0.00 | 0.00 | 1014.0 | |
| 20260503204846 | -17 | 36 | 4.8 | 4.8 | 0.00 | 0.00 | 0.00 | 1014.0 | |
| 20260503204343 | -17 | 24 | 9.7 | 9.7 | 0.00 | 0.00 | 0.00 | 1013.7 | |
| 20260503203841 | -17 | 182 | 16.1 | 19.3 | 0.00 | 0.00 | 0.00 | 1013.7 | |
| 20260503203338 | -17 | 256 | 14.5 | 17.7 | 0.00 | 0.00 | 0.00 | 1013.7 | |
| 20260503202835 | -17 | 185 | 12.9 | 14.5 | 0.00 | 0.00 | 0.00 | 1014.0 | |
| 20260503202333 | -17 | 252 | 9.7 | 9.7 | 0.00 | 0.00 | 0.00 | 1014.0 | |
| 20260503201831 | -17 | 186 | 9.7 | 11.3 | 0.00 | 0.00 | 0.00 | 1014.0 | |
| 20260503201327 | -17 | 199 | 16.1 | 17.7 | 0.00 | 0.00 | 0.00 | 1014.3 | |
| 20260503200825 | -17 | 112 | 14.5 | 14.5 | 0.00 | 0.00 | 0.00 | 1014.3 | |
| 20260503200321 | -17 | 235 | 20.9 | 24.1 | 0.00 | 0.00 | 0.00 | 1014.3 | |
| 20260503195819 | -17 | 264 | 11.3 | 16.1 | 0.00 | 0.00 | 0.00 | 1014.3 | |
| 20260503195315 | -17 | 188 | 16.1 | 16.1 | 0.00 | 0.00 | 0.00 | 1014.3 | |
| 20260503194813 | -17 | 161 | 4.8 | 6.4 | 0.00 | 0.00 | 0.00 | 1014.3 | |
| 20260503194308 | -17 | 246 | 16.1 | 19.3 | 0.00 | 0.00 | 0.00 | 1014.7 | |
| 20260503193804 | -17 | 236 | 16.1 | 20.9 | 0.00 | 0.00 | 0.00 | 1014.7 | |
| 20260503193300 | -17 | 168 | 14.5 | 16.1 | 0.00 | 0.00 | 0.00 | 1014.7 | |
| 20260503192756 | -17 | 174 | 14.5 | 16.1 | 0.00 | 0.00 | 0.00 | 1014.7 | |
| 20260503192252 | -17 | 270 | 8.0 | 9.7 | 0.00 | 0.00 | 0.00 | 1014.7 | |
| 20260503191749 | -17 | 252 | 16.1 | 16.1 | 0.00 | 0.00 | 0.00 | 1014.7 | |
| 20260503191246 | -17 | 179 | 20.9 | 27.4 | 0.00 | 0.00 | 0.00 | 1015.0 | |
| 20260503190742 | -17 | 208 | 12.9 | 16.1 | 0.00 | 0.00 | 0.00 | 1015.0 | |
| 20260503190239 | -17 | 116 | 16.1 | 16.1 | 0.00 | 0.00 | 0.00 | 1015.0 | |
| 20260503185737 | -17 | 185 | 9.7 | 9.7 | 0.00 | 0.00 | 0.00 | 1015.0 | |
| 20260503185232 | -17 | 258 | 12.9 | 14.5 | 0.00 | 0.00 | 0.00 | 1015.0 | |
| 20260503184727 | -17 | 229 | 17.7 | 17.7 | 0.00 | 0.00 | 0.00 | 1015.0 | |
| 20260503184223 | -17 | 204 | 20.9 | 20.9 | 0.00 | 0.00 | 0.00 | 1015.4 | |
| 20260503183720 | -17 | 214 | 11.3 | 16.1 | 0.00 | 0.00 | 0.00 | 1015.4 | |
| 20260503183217 | -17 | 264 | 16.1 | 16.1 | 0.00 | 0.00 | 0.00 | 1015.4 | |
| 20260503182716 | -17 | 168 | 14.5 | 16.1 | 0.00 | 0.00 | 0.00 | 1015.7 | |
| 20260503182214 | -17 | 210 | 9.7 | 11.3 | 0.00 | 0.00 | 0.00 | 1015.7 | |
| 20260503181709 | -17 | 192 | 9.7 | 11.3 | 0.00 | 0.00 | 0.00 | 1015.7 | |
| 20260503181207 | -17 | 150 | 6.4 | 6.4 | 0.00 | 0.00 | 0.00 | 1015.4 | |
| 20260503180703 | -17 | 242 | 17.7 | 19.3 | 0.00 | 0.00 | 0.00 | 1015.4 | |
| 20260503180202 | -17 | 192 | 16.1 | 17.7 | 0.00 | 0.00 | 0.00 | 1015.4 | |
| 20260503175658 | -17 | 151 | 8.0 | 8.0 | 0.00 | 0.00 | 0.00 | 1016.0 | |
| 20260503175156 | -17 | 173 | 9.7 | 9.7 | 0.00 | 0.00 | 0.00 | 1016.0 | |
| 20260503174652 | -17 | 209 | 14.5 | 16.1 | 0.00 | 0.00 | 0.00 | 1016.0 | |
| 20260503174149 | -17 | 203 | 12.9 | 14.5 | 0.00 | 0.00 | 0.00 | 1016.4 | |
| 20260503173644 | -17 | 168 | 9.7 | 11.3 | 0.00 | 0.00 | 0.00 | 1016.4 | |
| 20260503173141 | -17 | 277 | 9.7 | 9.7 | 0.00 | 0.00 | 0.00 | 1016.4 | |
| 20260503172638 | -17 | 274 | 8.0 | 9.7 | 0.00 | 0.00 | 0.00 | 1016.4 | |
| 20260503172135 | -17 | 206 | 8.0 | 9.7 | 0.00 | 0.00 | 0.00 | 1016.4 | |
| 20260503171631 | -17 | 258 | 16.1 | 16.1 | 0.00 | 0.00 | 0.00 | 1016.4 | |
| 20260503171129 | -17 | 241 | 22.5 | 24.1 | 0.00 | 0.00 | 0.00 | 1016.4 | |
| 20260503170626 | -17 | 222 | 12.9 | 14.5 | 0.00 | 0.00 | 0.00 | 1016.4 | |
| 20260503170123 | -17 | 276 | 14.5 | 16.1 | 0.00 | 0.00 | 0.00 | 1016.4 | |
| 20260503151012 | -17 | 168 | 16.1 | 17.7 | 0.00 | 0.00 | 0.00 | 1017.4 | |
| 20260503150508 | -17 | 153 | 19.3 | 22.5 | 0.00 | 0.00 | 0.00 | 1017.4 | |
| 20260503131355 | -17 | 0 | 12.9 | 14.5 | 0.00 | 0.00 | 0.00 | 1017.7 | |
| 20260503130853 | -17 | 0 | 14.5 | 16.1 | 0.00 | 0.00 | 0.00 | 1017.7 | |
| 20260503130350 | -17 | 0 | 9.7 | 9.7 | 0.00 | 0.00 | 0.00 | 1017.7 | |
| 20260503110744 | -17 | 0.0 | 0.0 | 0.00 | 0.00 | 0.00 | 1018.2 | ||
| 20260503110241 | -17 | 0.0 | 0.0 | 0.00 | 0.00 | 0.00 | 1018.2 | ||
| 20260503100207 | -17 | 0.0 | 0.0 | 0.00 | 0.00 | 0.00 | 1018.2 | ||
| 20260503090131 | -17 | 0.0 | 0.0 | 0.00 | 0.00 | 0.00 | 1018.2 | ||
| 20260503081607 | -17 | 0.0 | 0.0 | 0.00 | 0.00 | 0.00 | 1018.2 | ||
| 20260503081105 | -17 | 0.0 | 0.0 | 0.00 | 0.00 | 0.00 | 1018.2 | ||
| 20260503080600 | -17 | 0.0 | 0.0 | 0.00 | 0.00 | 0.00 | 1018.2 | ||
| 20260503072534 | -17 | 0.0 | 0.0 | 0.00 | 0.00 | 0.00 | 1018.2 | ||
| 20260503072031 | -17 | 0.0 | 0.0 | 0.00 | 0.00 | 0.00 | 1018.2 | ||
| 20260503071528 | -17 | 0.0 | 0.0 | 0.00 | 0.00 | 0.00 | 1018.2 | ||
| 20260503071025 | -17 | 0.0 | 0.0 | 0.00 | 0.00 | 0.00 | 1018.2 | ||
| 20260503070521 | -17 | 0.0 | 0.0 | 0.00 | 0.00 | 0.00 | 1018.2 | ||
| 20260503054934 | -17 | 0.0 | 0.0 | 0.00 | 0.00 | 0.00 | 1018.2 | ||
| 20260503054430 | -17 | 0.0 | 0.0 | 0.00 | 0.00 | 0.00 | 1018.2 | ||
| 20260503053928 | -17 | 0.0 | 0.0 | 0.00 | 0.00 | 0.00 | 1018.2 | ||
| 20260503053426 | -17 | 0.0 | 0.0 | 0.00 | 0.00 | 0.00 | 1018.2 | ||
| 20260503052922 | -17 | 0.0 | 0.0 | 0.00 | 0.00 | 0.00 | 1018.2 | ||
| 20260503052420 | -17 | 0.0 | 0.0 | 0.00 | 0.00 | 0.00 | 1018.2 | ||
| 20260503051916 | -17 | 0.0 | 0.0 | 0.00 | 0.00 | 0.00 | 1018.2 | ||
| 20260503051412 | -17 | 0.0 | 0.0 | 0.00 | 0.00 | 0.00 | 1018.2 | ||
| 20260503050909 | -17 | 0.0 | 0.0 | 0.00 | 0.00 | 0.00 | 1018.2 | ||
| 20260503050405 | -17 | 0.0 | 0.0 | 0.00 | 0.00 | 0.00 | 1018.2 | ||
| 20260503045902 | -17 | 0.0 | 0.0 | 0.00 | 0.00 | 0.00 | 1018.2 | ||
| 20260503045400 | -17 | 0.0 | 0.0 | 0.00 | 0.00 | 0.00 | 1018.2 | ||
| 20260503044856 | -17 | 0.0 | 0.0 | 0.00 | 0.00 | 0.00 | 1018.2 | ||
| 20260503044353 | -17 | 0.0 | 0.0 | 0.00 | 0.00 | 0.00 | 1018.2 | ||
| 20260503043850 | -17 | 0.0 | 0.0 | 0.00 | 0.00 | 0.00 | 1018.2 | ||
| 20260503043347 | -17 | 0.0 | 0.0 | 0.00 | 0.00 | 0.00 | 1018.2 | ||
| 20260503042843 | -17 | 0.0 | 0.0 | 0.00 | 0.00 | 0.00 | 1018.2 | ||
| 20260503042340 | -17 | 0.0 | 0.0 | 0.00 | 0.00 | 0.00 | 1018.2 | ||
| 20260503041836 | -17 | 0.0 | 0.0 | 0.00 | 0.00 | 0.00 | 1018.2 | ||
| 20260503041334 | -17 | 0.0 | 0.0 | 0.00 | 0.00 | 0.00 | 1018.2 | ||
| 20260503040831 | -17 | 0.0 | 0.0 | 0.00 | 0.00 | 0.00 | 1018.2 | ||
| 20260503040329 | -17 | 0.0 | 0.0 | 0.00 | 0.00 | 0.00 | 1018.2 | ||
| 20260503035826 | -17 | 0.0 | 0.0 | 0.00 | 0.00 | 0.00 | 1018.2 | ||
| 20260503035322 | -17 | 0.0 | 0.0 | 0.00 | 0.00 | 0.00 | 1018.2 | ||
| 20260503034820 | -17 | 0.0 | 0.0 | 0.00 | 0.00 | 0.00 | 1018.2 | ||
| 20260503034317 | -17 | 0.0 | 0.0 | 0.00 | 0.00 | 0.00 | 1018.2 | ||
| 20260503033814 | -17 | 0.0 | 0.0 | 0.00 | 0.00 | 0.00 | 1018.2 | ||
| 20260503033311 | -17 | 0.0 | 0.0 | 0.00 | 0.00 | 0.00 | 1018.2 | ||
| 20260503032810 | -17 | 0.0 | 0.0 | 0.00 | 0.00 | 0.00 | 1018.2 | ||
| 20260503032309 | -17 | 0.0 | 0.0 | 0.00 | 0.00 | 0.00 | 1018.2 | ||
| 20260503031805 | -17 | 0.0 | 0.0 | 0.00 | 0.00 | 0.00 | 1018.2 | ||
| 20260503031303 | -17 | 0.0 | 0.0 | 0.00 | 0.00 | 0.00 | 1018.2 | ||
| 20260503030759 | -17 | 0.0 | 0.0 | 0.00 | 0.00 | 0.00 | 1018.2 | ||
| 20260503030255 | -17 | 0.0 | 0.0 | 0.00 | 0.00 | 0.00 | 1018.2 | ||
| 20260503025752 | -17 | 0.0 | 0.0 | 0.00 | 0.00 | 0.00 | 1018.2 | ||
| 20260503025250 | -17 | 0.0 | 0.0 | 0.00 | 0.00 | 0.00 | 1018.2 | ||
| 20260503024747 | -17 | 0.0 | 0.0 | 0.00 | 0.00 | 0.00 | 1018.2 | ||
| 20260503024244 | -17 | 0.0 | 0.0 | 0.00 | 0.00 | 0.00 | 1018.2 | ||
| 20260503023740 | -17 | 0.0 | 0.0 | 0.00 | 0.00 | 0.00 | 1018.2 | ||
| 20260503023237 | -17 | 0.0 | 0.0 | 0.00 | 0.00 | 0.00 | 1018.2 | ||
| 20260503022734 | -17 | 0.0 | 0.0 | 0.00 | 0.00 | 0.00 | 1018.2 | ||
| 20260503022233 | -17 | 0.0 | 0.0 | 0.00 | 0.00 | 0.00 | 1018.2 | ||
| 20260503021731 | -17 | 0.0 | 0.0 | 0.00 | 0.00 | 0.00 | 1018.2 | ||
| 20260503021226 | -17 | 0.0 | 0.0 | 0.00 | 0.00 | 0.00 | 1018.2 | ||
| 20260503020724 | -17 | 0.0 | 0.0 | 0.00 | 0.00 | 0.00 | 1018.2 | ||
| 20260503020222 | -17 | 0.0 | 0.0 | 0.00 | 0.00 | 0.00 | 1018.2 | ||
| 20260503015718 | -17 | 0.0 | 0.0 | 0.00 | 0.00 | 0.00 | 1018.2 | ||
| 20260503015215 | -17 | 0.0 | 0.0 | 0.00 | 0.00 | 0.00 | 1018.2 | ||
| 20260503014711 | -17 | 0.0 | 0.0 | 0.00 | 0.00 | 0.00 | 1018.2 | ||
| 20260503014209 | -17 | 0.0 | 0.0 | 0.00 | 0.00 | 0.00 | 1018.2 | ||
| 20260503013706 | -17 | 0.0 | 0.0 | 0.00 | 0.00 | 0.00 | 1018.2 | ||
| 20260503013204 | -17 | 0.0 | 0.0 | 0.00 | 0.00 | 0.00 | 1018.2 | ||
| 20260503012701 | -17 | 0.0 | 0.0 | 0.00 | 0.00 | 0.00 | 1018.2 | ||
| 20260503012158 | -17 | 0.0 | 0.0 | 0.00 | 0.00 | 0.00 | 1018.2 | ||
| 20260503011654 | -17 | 0.0 | 0.0 | 0.00 | 0.00 | 0.00 | 1018.2 | ||
| 20260503011151 | -17 | 0.0 | 0.0 | 0.00 | 0.00 | 0.00 | 1018.2 | ||
| 20260503010647 | -17 | 0.0 | 0.0 | 0.00 | 0.00 | 0.00 | 1018.2 | ||
| 20260503010145 | -17 | 0.0 | 0.0 | 0.00 | 0.00 | 0.00 | 1018.2 | ||
| 20260503005642 | -17 | 0.0 | 0.0 | 0.00 | 0.00 | 0.00 | 1018.2 | ||
| 20260503005139 | -17 | 0.0 | 0.0 | 0.00 | 0.00 | 0.00 | 1018.2 | ||
| 20260503004635 | -17 | 0.0 | 0.0 | 0.00 | 0.00 | 0.00 | 1018.2 | ||
| 20260503004134 | -17 | 0.0 | 0.0 | 0.00 | 0.00 | 0.00 | 1018.2 | ||
| 20260503003630 | -17 | 0.0 | 0.0 | 0.00 | 0.00 | 0.00 | 1018.2 | ||
| 20260503003127 | -17 | 0.0 | 0.0 | 0.00 | 0.00 | 0.00 | 1018.2 | ||
| 20260503002624 | -17 | 0.0 | 0.0 | 0.00 | 0.00 | 0.00 | 1018.2 | ||
| 20260503002121 | -17 | 0.0 | 0.0 | 0.00 | 0.00 | 0.00 | 1018.2 | ||
| 20260503001617 | -17 | 0.0 | 0.0 | 0.00 | 0.00 | 0.00 | 1018.2 | ||
| 20260503001114 | -17 | 0.0 | 0.0 | 0.00 | 0.00 | 0.00 | 1018.2 | ||
| 20260503000612 | -17 | 0.0 | 0.0 | 0.00 | 0.00 | 0.00 | 1018.2 | ||
| 20260503000109 | -17 | 0.0 | 0.0 | 0.00 | 0.00 | 0.00 | 1018.2 | ||
| 20260502235605 | -17 | 0.0 | 0.0 | 0.00 | 0.00 | 0.00 | 1018.2 | ||
| 20260502235103 | -17 | 0.0 | 0.0 | 0.00 | 0.00 | 0.00 | 1018.2 | ||
| 20260502234559 | -17 | 0.0 | 0.0 | 0.00 | 0.00 | 0.00 | 1018.2 | ||
| 20260502234057 | -17 | 0.0 | 0.0 | 0.00 | 0.00 | 0.00 | 1018.2 | ||
| 20260502233552 | -17 | 0.0 | 0.0 | 0.00 | 0.00 | 0.00 | 1018.2 | ||
| 20260502233049 | -17 | 0.0 | 0.0 | 0.00 | 0.00 | 0.00 | 1018.2 | ||
| 20260502232545 | -17 | 0.0 | 0.0 | 0.00 | 0.00 | 0.00 | 1018.2 | ||
| 20260502232043 | -17 | 0.0 | 0.0 | 0.00 | 0.00 | 0.00 | 1018.2 | ||
| 20260502231539 | -17 | 0.0 | 0.0 | 0.00 | 0.00 | 0.00 | 1018.2 | ||
| 20260502231037 | -17 | 0.0 | 0.0 | 0.00 | 0.00 | 0.00 | 1018.2 | ||
| 20260502230535 | -17 | 0.0 | 0.0 | 0.00 | 0.00 | 0.00 | 1018.2 | ||
| 20260502230034 | -17 | 0.0 | 0.0 | 0.00 | 0.00 | 0.00 | 1018.2 | ||
| 20260502225529 | -17 | 0.0 | 0.0 | 0.00 | 0.00 | 0.00 | 1018.2 |